Location: Tuscaloosa
(33.2100°N, 87.5400°W)
Time: 16:07:29
(UTC-05:00)

Daily predictions for brighter satellites

Satellite Brightness Start Highest point End
(mag) Time Altitude Azimuth Time Altitude Azimuth Time Altitude Azimuth
Timation 2 Rocket 3.9 20:08:05 10° S 20:13:58 68° ESE 20:19:58 10° NNE
Envisat 3.0 20:08:57 10° SSE 20:14:01 81° ENE 20:19:06 10° N
Cosmos 2016 Rocket 4.2 20:09:51 10° S 20:15:57 81° W 20:22:07 10° N
Cosmos 1975 3.9 20:13:29 10° NNE 20:16:56 27° ENE 20:20:22 10° SE
Cosmos 2208 Rocket 4.0 20:14:39 10° SSW 20:19:50 89° E 20:25:02 10° NNE
Cosmos 1743 4.0 20:19:16 10° NNE 20:22:20 23° ENE 20:25:23 10° SE
Cosmos 1378 Rocket 3.5 20:18:40 10° S 20:22:58 78° E 20:27:16 10° N
GPS 2-05 Rocket1 3.0 20:22:29 10° SW 20:25:38 46° SSE 20:28:50 10° E
Cosmos 1975 Rocket 3.5 20:25:32 10° SSE 20:29:32 38° E 20:33:33 10° NNE
Cosmos 2084 4.1 20:25:22 10° SW 20:29:43 60° WNW 20:33:51 10° NNE
Cosmos 1725 Rocket 4.1 20:23:53 10° S 20:30:03 86° W 20:36:17 10° N
Okean 1 Rocket 3.0 20:32:15 10° N 20:36:35 77° E 20:40:55 10° S
Tsikada Rocket 4.1 20:34:00 10° N 20:40:26 78° E 20:46:50 10° S
Meteor 2-4 Rocket 4.3 20:35:53 10° SSE 20:40:45 35° E 20:45:44 10° NNE
ATLAS CENTAUR R/B 3.2 20:37:07 10° NW 20:41:19 33° WSW 20:45:38 10° S
Okean 1 4.0 20:39:19 10° SSW 20:43:18 57° W 20:47:18 10° N
Cosmos 1242 Rocket 3.1 20:40:46 10° N 20:44:11 39° E 20:46:52 15° SE
YAOGAN 6 2.9 20:41:58 10° S 20:45:38 71° W 20:49:19 10° NNW
USA 186 2.2 20:43:14 10° S 20:46:24 64° W 20:49:46 10° NNW
NOAA 11 4.4 20:43:41 10° SSE 20:48:59 55° ENE 20:54:18 10° N
Thor Agena Rocket 4.0 20:44:52 10° N 20:50:04 66° WNW 20:55:11 10° SSW
Shenzhou-11 Module 4.2 20:49:44 10° NW 20:52:01 20° NNE 20:54:17 10° ENE
Spot 2 Rocket 3.6 20:47:48 11° SSE 20:52:29 57° ENE 20:57:24 10° N
Cosmos 2322 Rocket 2.4 20:48:01 10° N 20:53:31 54° ENE 20:57:49 16° SE
Lacrosse 5 rocket 3.7 20:52:12 10° N 20:54:31 14° NE 20:56:46 10° ENE
Cosmos 1763 Rocket 3.6 20:51:23 10° SSW 20:56:42 85° WNW 21:02:01 10° NNE
SJ 16-02 3.5 20:55:36 10° NE 20:57:08 12° ENE 20:58:37 10° E
Tiangong 2 4.0 20:56:52 10° NW 20:58:43 14° N 21:00:35 10° NNE
Cosmos 1939 Rocket 3.6 20:56:29 10° S 21:00:30 55° W 21:04:35 10° NNW
Cosmos 1937 Rocket 3.7 20:55:45 10° N 21:00:48 55° ENE 21:04:20 19° SE
Cosmos 841 Rocket 3.4 20:58:58 10° S 21:04:10 76° ESE 21:09:27 10° NNE
SL-16 R/B 2.2 20:58:47 10° NNW 21:04:28 74° ENE 21:08:41 18° SSE
Cosmos 292 Rocket 3.6 20:59:51 10° S 21:04:34 72° ESE 21:09:19 10° NNE
Cosmos 2233 Rocket 4.3 21:00:09 10° SSW 21:06:16 70° W 21:12:28 10° N
BREEZE M DEB (TANK) 4.4 20:56:29 10° NW 21:06:16 37° NNE 21:09:21 14° E
Cosmos 2298 Rocket 4.2 21:06:16 10° N 21:11:28 54° ENE 21:14:31 24° SE
Resurs 01 Rocket 2.1 21:08:34 10° S 21:12:53 58° W 21:17:14 10° NNW
Cosmos 1340 Rocket 2.8 21:11:33 16° S 21:14:39 64° E 21:18:41 10° NNE
USA 234 3.4 21:11:11 10° NE 21:17:46 82° NW 21:24:20 10° SW
DELTA 2 R/B (1) 3.7 21:14:57 10° SW 21:20:18 52° SSE 21:25:42 10° ENE
Cosmos 2219 4.4 21:20:18 21° ESE 21:20:23 21° E 21:24:36 10° NE
USA 32 4.1 21:19:14 10° N 21:24:24 59° E 21:27:07 27° SSE
SL-08 RB Rocket 4.4 21:24:27 30° ESE 21:25:52 38° ENE 21:30:05 10° N
ERS-2 4.0 21:24:50 10° SSW 21:28:01 28° W 21:31:14 10° NW
ERS-1 Rocket 3.8 21:27:40 28° ESE 21:29:14 34° ENE 21:33:45 10° N
Delta 7925 Rocket 4.2 21:25:49 10° WSW 21:29:53 28° SSW 21:30:37 27° S
CENTAUR R/B 3.4 21:31:11 10° SW 21:36:47 48° NW 21:43:12 10° NNE
Cosmos 1025 Rocket 4.0 21:40:14 29° E 21:40:14 29° E 21:43:39 10° NNE
Cosmos 2360 Rocket 2.3 21:36:21 10° NNW 21:41:56 59° ENE 21:43:55 38° SE
Cosmos 1356 3.8 21:40:32 31° SSW 21:42:00 60° W 21:45:26 10° N
Cosmos 2219 Rocket 4.0 21:40:47 10° NNE 21:44:18 17° ENE 21:45:43 15° ENE
MetOp-A 4.0 21:43:51 35° SSE 21:46:11 84° ENE 21:51:34 10° NNW
Meteor 1-15 Rocket 4.4 21:40:41 10° N 21:46:13 52° E 21:47:48 40° SE
Skynet4D Del rocket 4.1 21:42:13 10° WSW 21:48:14 41° S 21:49:03 39° SSE
Cosmos 1513 Rocket 4.5 21:47:26 18° S 21:52:03 82° W 21:58:16 10° N
Aureole 2 Rocket 3.1 21:49:20 10° NNW 21:51:29 41° WNW 21:51:29 41° WNW
Okean 2 3.5 21:53:27 56° E 21:53:27 56° E 21:57:25 10° NNE
SPOT 1/Viking Rocket 4.2 21:55:11 36° E 21:55:53 38° ENE 22:00:37 10° N
Atlas Centaur 2 3.3 21:53:57 10° WSW 21:55:30 16° SW 21:55:30 16° SW
Cosmos 2034 Rocket 3.9 21:54:59 27° S 21:58:30 89° E 22:04:41 10° N
H-2A R/B 1.8 21:57:46 49° SSE 21:59:08 89° W 22:04:12 10° NNW
Cosmos 1455 Rocket 3.7 21:55:46 10° NNW 22:00:00 51° W 22:01:30 35° SSW
USA 245 3.4 22:00:38 59° NE 22:00:38 59° NE 22:04:33 10° N
Cosmos 1464 Rocket 4.4 21:54:43 12° SSW 22:00:35 63° W 22:06:55 10° N
Helios 1A 3.6 22:00:58 41° ENE 22:00:58 41° ENE 22:04:36 10° N
Cosmos 1125 Rocket 3.8 21:56:29 10° N 22:01:32 47° ENE 22:02:08 45° E
GPS 2-05 Rocket1 3.6 21:59:34 10° W 22:02:11 48° WNW 22:02:11 48° WNW
Cosmos 1356 Rocket 3.5 22:07:09 67° ENE 22:07:09 67° ENE 22:11:06 10° NNE
BREEZE-M DEB (TANK) 3.9 22:06:07 10° WNW 22:08:57 40° SW 22:08:59 40° SW
COSMOS 2455 4.3 22:14:03 21° ENE 22:14:03 21° ENE 22:16:42 10° NE
Cosmos 2333 Rocket 3.4 22:10:21 10° N 22:15:10 27° ENE 22:15:46 27° ENE
COSMOS 2428 3.1 22:12:44 10° N 22:18:13 47° ENE 22:18:42 46° E
Terra 2.9 22:21:33 32° ENE 22:21:33 32° ENE 22:25:15 10° N
ARGOS 4.1 22:19:06 30° SW 22:21:07 42° W 22:26:14 10° NNW
Cosmos 1634 Rocket 4.1 22:23:14 54° ESE 22:23:42 55° E 22:29:51 10° NNE
Helios 1B rocket 3.0 22:21:25 10° NNE 22:24:34 51° NNE 22:24:34 51° NNE
SPOT 5 2.7 22:26:23 72° N 22:26:23 72° N 22:30:31 10° N
OAO 1 Rocket 4.3 22:21:02 10° WNW 22:26:15 76° SSW 22:26:15 76° SSW
Cosmos 2297 Rocket 3.8 22:29:00 21° ENE 22:29:00 21° ENE 22:31:24 10° NE
DMSP B5D2-2 4.4 22:22:51 10° N 22:28:04 62° WNW 22:29:45 41° SW
Cosmos 2227 Rocket 3.5 22:32:28 27° ENE 22:32:28 27° ENE 22:35:29 10° NE
Lacrosse 5 rocket 2.2 22:30:01 10° NW 22:33:08 46° WNW 22:33:08 46° WNW
SJ 16-02 2.0 22:31:43 10° NNW 22:35:37 49° W 22:35:37 49° W
Tiangong 2 3.9 22:33:49 10° NW 22:35:15 17° N 22:35:15 17° N
Cosmos 2322 Rocket 4.4 22:33:46 10° WNW 22:37:00 16° W 22:39:40 12° SW
Cosmos 2322 3.9 22:34:05 10° NNW 22:39:41 58° WSW 22:40:13 56° SW
Cosmos 2237 Rocket 3.6 22:37:17 10° N 22:41:53 25° ENE 22:41:55 25° ENE
Cosmos 1066 Rocket 4.4 22:44:56 56° WSW 22:45:34 61° W 22:50:57 10° N
Okean 1-7 Rocket 4.3 22:48:21 52° N 22:48:21 52° N 22:51:50 10° N
Cosmos 2219 4.2 23:02:07 32° WSW 23:04:09 43° WNW 23:09:37 10° N
DELTA 2 R/B (1) 4.0 23:01:17 10° W 23:06:46 58° NNW 23:07:30 53° NNE
CZ-4C R/B 2.8 22:59:51 10° NNW 23:07:24 89° WSW 23:08:19 73° SSE
Cosmos 1092 Rocket 4.3 23:04:30 10° NNW 23:10:42 58° W 23:11:07 57° WSW
NOSS 0 Rocket 4.1 23:13:02 10° NNW 23:18:39 69° NNE 23:18:39 69° NNE
CZ-2C R/B 3.1 23:14:23 10° NNE 23:18:57 60° N 23:18:57 60° N
Cosmos 2360 Rocket 4.4 23:22:23 10° WNW 23:25:19 14° W 23:25:42 14° WSW
Cosmos 2219 Rocket 2.9 23:23:07 10° NNW 23:27:26 48° WNW 23:27:26 48° WNW
CZ-2C R/B 3.9 23:32:01 50° NW 23:32:01 50° NW 23:36:25 10° NNW
Cosmos 2279 Rocket 4.3 23:37:52 59° WNW 23:37:52 59° WNW 23:43:34 10° N
Cosmos 2026 Rocket 4.4 23:31:48 10° NNW 23:37:10 53° WNW 23:37:10 53° WNW
Mayak 1.5 23:45:40 10° NNE 23:46:22 14° NNE 23:46:22 14° NNE
Cosmos 1655 Rocket 4.4 23:46:03 10° NNW 23:51:26 60° NW 23:51:26 60° NW
